C/2022 S5 ( PanSTARRS )

Japanese version
Home page
Updated on April 23, 2023

---------------------------------------------------------------------

* Profile

Discovery Date September 24, 2022
Magnitude 19.5 mag
Discoverer Pan-STARRS 2 telescope (Haleakala)

* Orbital Elements

Epoch 2023 Feb. 25.0 TT = JDT 2460000.5
T 2022 Nov. 27.45785 TT                                 Rudenko
q   2.1787890            (2000.0)            P               Q
n   0.01069888     Peri.  232.77591     +0.82669554     -0.40245252
a  20.3975120      Node   214.85917     +0.10004515     -0.58255775
e   0.8931836      Incl.  136.53269     -0.55368353     -0.70615751
P  92.1
>From 102 observations 2022 Aug. 12-Nov. 18, mean residual 0".5.

* Magnitudes Graph

        m1 = 15.0 + 5 log d + 10.0 log r

---------------------------------------------------------------------

The orbital elements are published on M.P.E.C. 2023-H131.
The magnitudes graphs are made with Comet for Windows.

---------------------------------------------------------------------

Copyright(C) Seiichi Yoshida (comet@aerith.net). All rights reserved.